Abbotsford, British Columbia

12:30 AM PDT on October 18, 2017 (GMT -0700)
Abbotsford

Weather History for CYXX - May, 2014

Change the Weather History Date:

Saturday, May 3, 2014

  Actual Average Record
Temperature  
Mean Temperature 52 °F -  
Max Temperature 55 °F 64 °F 72 °F (2013)
Min Temperature 48 °F 44 °F 37 °F (2006)
Degree Days  
Heating Degree Days 14    
Growing Degree Days 2 (Base 50)    
Moisture  
Dew Point 48 °F    
Average Humidity 84    
Maximum Humidity 100    
Minimum Humidity 67    
Precipitation  
Precipitation 0.16 in 0.11 in - ()
Sea Level Pressure  
Sea Level Pressure 29.84 in    
Wind  
Wind Speed 7 mph ()    
Max Wind Speed 13 mph    
Max Gust Speed 17 mph    
Visibility 11.5 miles    
Events Rain    
Averages and records for this station are not official NWS values.
T = Trace of Precipitation, MM = Missing Value Source: Averaged Metar Reports

Daily Weather History Graph

Daily Weather History Graph

Search for Another Location

Airport or City:

Trip Planner

Search our weather history database for the weather conditions in past years. The results will help you decide how hot, cold, wet, or windy it might be!

Date:

Astronomy

May. 03, 2014 Rise Set
Actual Time 5:44 AM PDT 8:28 PM PDT
Civil Twilight 5:08 AM PDT 9:04 PM PDT
Nautical Twilight 4:23 AM PDT 9:51 PM PDT
Astronomical Twilight 3:28 AM PDT 10:46 PM PDT
Moon 9:15 AM PDT (5/3) No Moon Set
Length of Visible Light 15h 55m
Length of Day
14h 43m
Waxing Crescent, 20% of the Moon is Illuminated
May 3
Waxing Crescent
May 6
First Quarter
May 14
Full
May 21
Last Quarter
May 28
New

Hourly Weather History & Observations

Time (PDT) Temp. Dew Point Humidity Pressure Visibility Wind Dir Wind Speed Gust Speed Precip Events Conditions
12:00 AM 53.6 °F 53.6 °F 100% 29.86 in 6.0 mi SW 5.8 mph - N/A Rain Light Rain Showers
1:00 AM 53.6 °F 51.8 °F 94% 29.88 in 6.0 mi South 12.7 mph - N/A Rain Light Rain Showers
2:00 AM 51.8 °F 50.0 °F 94% 29.89 in 6.0 mi South 9.2 mph - N/A Rain Light Rain Showers
3:00 AM 51.8 °F 48.2 °F 88% 29.89 in 8.0 mi South 8.1 mph - N/A Rain Light Rain Showers
4:00 AM 50.0 °F 46.4 °F 87% 29.88 in 10.0 mi SSE 8.1 mph - N/A Rain Light Rain Showers
5:00 AM 49 °F 46 °F 87% 29.88 in 10 mi South 6.9 mph - - Rain Light Rain Showers
5:00 AM 50.0 °F 46.4 °F 87% 29.88 in 10.0 mi South 8.1 mph - N/A Rain Light Rain Showers
6:00 AM 50.0 °F 46.4 °F 87% 29.87 in 10.0 mi South 4.6 mph - N/A Rain Light Rain Showers
6:43 AM 50.0 °F 46.4 °F 87% 29.86 in 10.0 mi South 3.5 mph - N/A   Overcast
7:00 AM 50.0 °F 46.4 °F 87% 29.86 in 15.0 mi Calm Calm - N/A   Overcast
8:00 AM 50.0 °F 46.4 °F 87% 29.86 in 15.0 mi South 4.6 mph - N/A   Overcast
8:34 AM 50.0 °F 46.4 °F 87% 29.86 in 15.0 mi SE 3.5 mph - N/A Rain Light Rain Showers
9:00 AM 51.8 °F 46.4 °F 82% 29.86 in 15.0 mi Calm Calm - N/A Rain Light Rain Showers
10:00 AM 51.8 °F 44.6 °F 76% 29.86 in 10.0 mi South 9.2 mph - N/A Rain Light Rain Showers
11:00 AM 53 °F 45 °F 67% 29.86 in 15 mi SSE 12.7 mph - - Rain Light Rain Showers
11:00 AM 53.6 °F 44.6 °F 72% 29.86 in 15.0 mi South 11.5 mph - N/A   Overcast
11:16 AM 55.4 °F 44.6 °F 67% 29.86 in 15.0 mi South 12.7 mph - N/A   Overcast
12:00 PM 55.4 °F 44.6 °F 67% 29.86 in 20.0 mi South 8.1 mph - N/A   Overcast
12:42 PM 55.4 °F 46.4 °F 72% 29.84 in 20.0 mi South 5.8 mph - N/A Rain Light Rain Showers
1:00 PM 55.4 °F 46.4 °F 72% 29.84 in 20.0 mi SSE 4.6 mph - N/A Rain Light Rain Showers
1:36 PM 51.8 °F 48.2 °F 88% 29.84 in 3.0 mi NE 6.9 mph - N/A Rain Heavy Rain Showers
2:00 PM 50.0 °F 48.2 °F 94% 29.85 in 10.0 mi NNE 8.1 mph - N/A Rain Rain Showers
3:00 PM 53.6 °F 50.0 °F 88% 29.83 in 10.0 mi NNE 9.2 mph - N/A Rain Light Rain Showers
3:33 PM 55.4 °F 50.0 °F 82% 29.83 in 10.0 mi NNE 9.2 mph - N/A   Overcast
4:00 PM 55.4 °F 50.0 °F 82% 29.82 in 10.0 mi NNE 8.1 mph - N/A   Overcast
5:00 PM 54 °F 48 °F 75% 29.81 in 15 mi NE 5.8 mph - - Rain Light Rain Showers
5:00 PM 53.6 °F 48.2 °F 82% 29.81 in 15.0 mi ENE 4.6 mph - N/A Rain Light Rain Showers
6:00 PM 55.4 °F 48.2 °F 77% 29.80 in 15.0 mi ENE 6.9 mph - N/A Rain Light Rain Showers
7:00 PM 53.6 °F 50.0 °F 88% 29.79 in 10.0 mi NNE 6.9 mph - N/A Rain Light Rain Showers
8:00 PM 51.8 °F 48.2 °F 88% 29.78 in 10.0 mi NNE 5.8 mph - N/A Rain Light Rain Showers
9:00 PM 51.8 °F 50.0 °F 94% 29.77 in 10.0 mi NNE 4.6 mph - N/A Rain Light Rain Showers
10:00 PM 50.0 °F 48.2 °F 94% 29.77 in 6.0 mi East 10.4 mph 17.3 mph N/A Rain Light Rain Showers
11:00 PM 50 °F 49 °F 93% 29.75 in 7 mi NE 6.9 mph - - Rain Light Rain Showers
11:00 PM 50.0 °F 48.2 °F 94% 29.75 in 8.0 mi NE 6.9 mph - N/A Rain Light Rain Showers